Glens Falls, NY

2:06 PM EDT on October 16, 2019 (GMT -0400)
Bennett Memorial

Weather History for KGFL - August, 2019

Change the Weather History Date:

Thursday, August 15, 2019

  Actual Average Record
Temperature  
Mean Temperature 67 °F 67 °F  
Max Temperature 81 °F 79 °F 95 °F (1959)
Min Temperature 52 °F 56 °F 44 °F (2013)
Degree Days  
Heating Degree Days 0 1  
Month to date heating degree days 5 15  
Since 1 June heating degree days 75 126  
Since 1 July heating degree days 5 36  
Cooling Degree Days 2 4  
Month to date cooling degree days 54 60  
Year to date cooling degree days 350 280  
Since 1 June cooling degree days 341 268  
Growing Degree Days 16 (Base 50)    
Moisture  
Dew Point 58 °F    
Average Humidity 71    
Maximum Humidity 100    
Minimum Humidity 42    
Precipitation  
Precipitation 0.26 in 0.12 in 1.87 in (2011)
Month to date precipitation 0.88 1.93  
Year to date precipitation 26.82 24.06  
Sea Level Pressure  
Sea Level Pressure 30.01 in    
Wind  
Wind Speed 3 mph (SE)    
Max Wind Speed 12 mph    
Max Gust Speed 15 mph    
Visibility 8 miles    
Events Rain , Thunderstorm    
T = Trace of Precipitation, MM = Missing Value Source: NWS Daily Summary

Daily Weather History Graph

Daily Weather History Graph

Search for Another Location

Airport or City:

Astronomy

Aug. 15, 2019 Rise Set
Actual Time 5:59 AM EDT 7:57 PM EDT
Civil Twilight 5:28 AM EDT 8:28 PM EDT
Nautical Twilight 4:50 AM EDT 9:06 PM EDT
Astronomical Twilight 4:09 AM EDT 9:47 PM EDT
Moon 8:25 PM EDT (8/15) 5:49 AM EDT (8/15)
Length of Visible Light 15h 00m
Length of Day
13h 58m
Full, 100% of the Moon is Illuminated
Aug 15
Full
Aug 23
Last Quarter
Aug 30
New
Sep 5
First Quarter
Sep 14
Full

Hourly Weather History & Observations

Time (EDT) Temp. Heat Index Dew Point Humidity Pressure Visibility Wind Dir Wind Speed Gust Speed Precip Events Conditions
12:53 AM 62.1 °F - 55.0 °F 78% 29.98 in 10.0 mi Calm Calm - N/A   Overcast
1:53 AM 60.1 °F - 55.0 °F 83% 29.99 in 10.0 mi Calm Calm - N/A   Clear
2:53 AM 57.0 °F - 54.0 °F 89% 29.99 in 10.0 mi Calm Calm - N/A   Clear
3:53 AM 55.0 °F - 54.0 °F 96% 30.00 in 10.0 mi Calm Calm - N/A   Clear
4:50 AM 53.6 °F - 53.6 °F 100% 30.01 in 1.8 mi Calm Calm - N/A   Clear
4:53 AM 54.0 °F - 53.1 °F 97% 30.01 in 1.8 mi Calm Calm - N/A   Clear
5:01 AM 53.1 °F - 52.0 °F 96% 30.01 in 3.0 mi Calm Calm - N/A   Clear
5:53 AM 52.0 °F - 51.1 °F 97% 30.02 in 6.0 mi Calm Calm - N/A   Clear
6:53 AM 55.9 °F - 54.0 °F 93% 30.03 in 10.0 mi Calm Calm - N/A   Clear
7:53 AM 63.0 °F - 55.9 °F 78% 30.04 in 10.0 mi Variable 5.8 mph - N/A   Clear
8:53 AM 66.0 °F - 55.9 °F 70% 30.05 in 10.0 mi NE 4.6 mph - N/A   Clear
9:53 AM 70.0 °F - 55.0 °F 59% 30.05 in 10.0 mi Variable 4.6 mph - N/A   Clear
10:53 AM 72.0 °F - 53.1 °F 51% 30.05 in 10.0 mi ENE 9.2 mph - N/A   Clear
11:53 AM 73.9 °F - 54.0 °F 50% 30.04 in 10.0 mi East 4.6 mph - N/A   Clear
12:53 PM 75.9 °F - 54.0 °F 46% 30.03 in 10.0 mi WSW 3.5 mph - N/A   Partly Cloudy
1:53 PM 77.0 °F - 55.9 °F 48% 30.02 in 10.0 mi Variable 4.6 mph - N/A   Overcast
2:53 PM 79.0 °F - 57.0 °F 47% 30.00 in 10.0 mi Variable 3.5 mph - N/A   Clear
3:53 PM 79.0 °F - 55.9 °F 45% 29.98 in 10.0 mi Calm Calm - N/A   Clear
4:53 PM 80.1 °F 80.2 °F 55.9 °F 43% 29.97 in 10.0 mi Calm Calm - N/A   Clear
5:53 PM 79.0 °F - 57.9 °F 48% 29.97 in 10.0 mi SSE 3.5 mph - N/A   Clear
6:53 PM 73.9 °F - 63.0 °F 68% 29.97 in 10.0 mi Calm Calm - N/A   Partly Cloudy
7:53 PM 71.1 °F - 64.0 °F 78% 29.98 in 10.0 mi Calm Calm - N/A   Mostly Cloudy
8:53 PM 68.0 °F - 63.0 °F 84% 29.99 in 10.0 mi Calm Calm - N/A   Mostly Cloudy
9:44 PM 70.0 °F - 62.1 °F 76% 30.01 in 4.0 mi South 8.1 mph - 0.08 in Rain , Thunderstorm Heavy Rain
9:53 PM 68.0 °F - 64.0 °F 87% 30.01 in 5.0 mi SSW 8.1 mph - 0.09 in Rain Light Rain
10:53 PM 66.9 °F - 64.9 °F 93% 30.01 in 6.0 mi Calm Calm - 0.05 in Rain Rain
11:07 PM 68.0 °F - 66.0 °F 93% 30.01 in 6.0 mi Calm Calm - 0.03 in Rain , Thunderstorm Thunderstorms and Rain
11:22 PM 68.0 °F - 64.9 °F 90% 30.00 in 10.0 mi ENE 3.5 mph - 0.05 in Rain Light Rain
11:40 PM 66.9 °F - 64.9 °F 93% 30.01 in 10.0 mi Calm Calm - 0.05 in Rain , Thunderstorm Light Rain
11:53 PM 66.0 °F - 64.9 °F 96% 30.02 in 3.0 mi West 4.6 mph - 0.09 in Rain , Thunderstorm Light Thunderstorms and Rain